Simultaneous Nadir Overpasses (SNOs) Predictions

Prediction of SNOs between GOES-16 and NPP Satellite Orbit:

Table of predicted SNOs for the next 14.0 days since TLE Epoch: 10/23/2021
Index Date Time (GOES-16) GOES-16 Lat,Lon NPP Lat,Lon Distance(km) Time Diff (sec)
1 10/24/2021 18:27:49 0.02, -75.21 -0.11, -75.89 77.11 80
2 10/25/2021 18:09:05 0.03, -75.21 0.89, -71.36 439.20 80
3 10/27/2021 06:33:35 -0.02, -75.21 0.29, -76.64 161.93 80
4 10/28/2021 06:12:12 -0.03, -75.22 -0.71, -72.11 354.37 80
5 10/29/2021 18:36:50 0.02, -75.23 -0.48, -77.41 248.71 80
6 10/30/2021 18:15:28 0.03, -75.24 0.58, -72.90 268.16 80
7 11/01/2021 06:39:57 -0.02, -75.26 0.65, -78.16 331.59 80
8 11/02/2021 06:18:35 -0.02, -75.27 -0.41, -73.64 185.49 80
9 11/03/2021 18:43:12 0.01, -75.29 -0.83, -78.94 416.67 80
10 11/04/2021 18:21:49 0.01, -75.30 0.23, -74.42 100.85 80
